Wind_Speed
8 7 6 6 7 8 6 5 7 9 11 10 8 9 11 12 12 11 10 10 9 8 8 8 8 8 7 7 7 8 8 8 7 7 8 7 7 6 5 5 4 4 4 3
10 8 8 10 11 10 8 7 8 10 12 11 10 10 12 14 13 12 11 11 10 9 10 9 9 8 8 8 8 7 8 8 7 7 7 7 7 6 6 6 5 5 5 5
12 10 12 13 13 10 9 10 10 12 11 10 11 12 12 14 14 13 12 12 11 10 10 9 9 9 9 9 9 8 9 8 7 7 7 7 6 6 5 5 5 6 6 5
13 13 14 14 13 12 11 11 13 13 12 11 11 14 13 13 15 14 14 13 13 12 11 10 10 10 10 10 9 9 9 8 7 7 7 7 6 6 6 6 6 6 6 6
15 15 15 15 15 15 13 13 13 13 13 12 11 13 14 14 15 15 15 14 14 14 13 11 10 10 11 11 10 9 10 9 8 7 8 7 7 7 6 6 7 7 7 7
16 16 16 17 16 15 14 14 13 13 12 14 12 13 15 17 17 17 16 15 16 14 14 13 12 12 12 11 10 10 10 9 8 8 8 7 7 7 7 8 8 8 8 8
17 17 18 19 17 16 16 14 14 14 14 15 13 14 17 18 18 18 18 16 16 16 16 15 14 13 12 12 11 11 10 10 10 9 9 9 9 9 9 9 9 8 9 9
16 17 18 19 18 18 17 15 15 16 16 17 15 16 18 19 19 19 19 19 18 18 18 17 17 15 14 13 12 12 11 11 11 11 11 11 11 10 10 10 10 10 10 11
17 18 20 21 20 20 19 18 17 19 19 19 16 16 17 20 21 20 19 20 20 20 20 19 19 18 17 16 14 13 13 13 13 13 13 13 13 13 12 12 12 12 12 12
20 20 19 21 22 21 21 20 19 20 20 20 18 17 18 21 22 21 21 21 22 22 22 21 21 21 20 18 17 15 15 14 14 15 15 15 15 14 14 14 14 14 13 14
21 21 20 21 22 20 21 20 20 20 20 20 19 18 18 21 23 24 24 23 22 22 21 22 23 22 21 19 18 18 18 17 17 17 18 17 17 16 16 16 15 16 15 16
24 23 22 22 21 21 22 21 21 21 21 21 20 19 19 21 22 24 25 24 23 23 24 24 24 23 23 21 19 20 19 20 20 20 20 20 19 18 18 18 18 18 17 17
24 24 24 21 21 21 22 22 21 22 22 21 21 22 21 24 25 26 27 26 26 26 25 25 25 24 24 24 23 22 22 22 22 23 23 22 21 20 20 20 21 20 19 19
26 26 25 23 22 22 23 22 22 23 23 23 23 23 24 26 27 28 29 29 28 27 26 26 26 26 27 27 26 25 24 24 25 25 25 24 23 23 23 23 23 22 21 21
27 27 26 26 24 25 26 25 25 26 26 26 25 25 25 27 28 29 31 32 31 29 28 28 28 29 29 29 28 27 26 27 27 27 27 27 26 26 26 25 25 24 23 23
28 27 27 27 26 26 27 26 26 27 27 27 27 27 26 28 29 30 31 33 32 30 30 30 30 31 30 30 30 30 29 29 29 28 28 29 28 28 27 27 27 26 25 25
29 29 28 27 26 27 28 26 26 26 26 27 28 29 30 30 31 30 31 32 31 30 30 31 31 31 31 30 31 31 31 31 30 29 29 30 30 29 29 29 29 28 28 27
30 29 30 29 28 29 27 26 28 30 29 29 31 32 33 32 32 32 32 34 33 32 31 31 30 30 31 31 31 31 32 32 32 32 31 32 32 32 32 32 31 31 31 30
30 31 31 31 30 29 27 27 28 29 30 30 31 32 32 32 33 34 35 35 34 34 33 32 31 31 31 31 31 31 31 31 32 33 33 33 33 33 33 34 33 32 32 32
30 31 32 32 31 30 26 27 28 29 30 31 31 32 31 32 33 34 35 35 34 35 35 35 34 33 33 32 32 33 32 32 33 33 33 34 34 35 35 35 35 34 34 34
31 32 33 33 33 31 29 28 29 31 32 31 31 32 33 33 35 36 36 35 34 34 35 35 33 33 33 33 33 33 33 33 33 33 34 34 35 36 36 35 35 35 36 36
31 32 33 33 33 32 30 30 32 33 33 33 33 33 34 35 35 36 36 36 35 36 36 35 34 34 34 34 33 33 34 34 34 34 34 35 36 36 36 36 36 36 36 37
30 31 31 32 33 33 33 34 35 36 35 34 34 34 35 35 35 35 36 36 36 36 36 35 36 35 34 34 33 34 35 35 35 35 36 36 36 37 36 36 37 37 38 38
31 32 32 33 33 33 35 36 37 37 36 36 36 36 36 37 37 36 36 36 36 36 36 37 37 36 35 34 34 34 35 35 36 36 37 36 36 36 36 36 37 37 38 38
32 34 35 35 35 35 36 36 36 36 37 37 37 37 37 37 37 37 37 37 35 35 35 35 36 36 36 35 34 34 34 34 35 36 36 36 36 36 35 35 36 37 38 38
33 33 34 34 34 34 34 35 35 36 36 36 36 36 36 37 38 37 36 36 35 35 35 33 33 34 34 34 34 33 34 34 35 35 34 35 35 35 34 35 35 35 35 36
Wind_Direction
210 211 225 239 251 252 245 258 264 277 283 288 289 298 304 309 310 314 314 314 313 314 317 321 322 320 328 336 342 349 350 353 355 357 360 359 5 10 7 7 6 354 350 349
221 224 231 233 243 241 240 249 261 267 276 285 288 295 299 301 306 311 309 305 305 307 310 312 315 321 323 325 327 336 336 340 342 345 351 354 354 2 8 8 3 350 343 343
228 225 241 246 244 241 245 251 255 263 271 279 283 283 286 295 301 301 298 299 302 305 303 307 310 310 313 317 320 322 327 330 330 333 337 345 349 352 351 349 352 349 338 337
234 228 235 242 246 250 251 257 258 262 268 272 275 284 285 286 294 295 294 297 299 298 294 298 300 303 304 305 308 312 317 319 319 320 322 324 336 341 338 341 341 338 333 332
237 236 239 243 249 249 249 253 258 261 263 268 273 279 284 277 281 287 288 292 295 298 294 296 296 296 298 298 298 305 308 310 308 310 313 315 324 330 332 331 331 331 333 331
239 244 245 246 249 249 252 254 259 266 267 268 275 276 281 272 270 278 284 286 289 294 294 293 291 290 291 291 291 295 297 299 298 300 308 313 316 318 319 319 319 323 327 325
247 245 247 248 249 250 251 252 262 271 271 272 275 268 270 272 274 275 279 277 282 287 285 286 286 284 286 285 285 287 287 287 290 297 303 304 306 307 309 311 313 315 317 319
250 253 251 251 249 251 256 249 251 261 267 274 269 262 265 276 275 276 279 277 277 278 278 279 281 279 278 280 280 278 280 281 286 293 296 296 297 299 301 303 303 303 305 308
242 249 253 254 253 249 250 248 249 257 263 269 269 266 267 273 277 278 275 273 274 276 278 279 279 277 275 274 274 275 278 280 284 288 291 291 291 294 293 294 294 296 296 299
240 244 251 258 257 254 250 250 250 250 256 264 266 268 266 266 270 271 269 270 272 272 272 273 276 276 276 276 270 271 275 276 279 282 285 288 289 291 291 292 291 292 293 296
247 247 250 253 255 255 253 250 249 252 253 258 265 264 260 265 270 271 270 270 272 271 271 272 274 277 276 275 272 272 272 272 275 278 280 281 283 286 288 290 290 289 288 292
250 249 250 254 257 256 252 252 251 253 253 253 257 264 262 265 268 270 268 268 269 270 269 269 271 272 273 274 272 271 272 272 273 275 276 277 279 281 283 285 287 285 284 289
251 250 249 250 253 254 254 254 251 249 253 256 260 267 266 266 267 267 268 268 268 269 269 269 270 270 272 272 270 271 272 273 272 273 274 276 276 278 280 281 283 281 282 286
251 249 248 248 248 251 253 252 252 252 251 256 257 262 266 267 266 266 269 270 270 271 269 268 267 270 273 272 270 270 271 272 272 272 273 274 274 275 276 279 280 279 280 284
253 252 250 248 247 248 250 251 253 253 252 253 256 258 261 265 268 268 269 268 268 269 268 267 267 268 270 270 268 268 269 271 271 271 272 274 273 273 274 276 278 278 279 282
257 255 255 253 251 252 251 251 254 259 260 259 257 259 262 266 268 269 270 271 269 268 268 267 267 268 268 268 267 265 268 270 269 270 271 272 271 271 273 274 276 276 277 280
255 256 256 257 256 257 257 257 257 256 256 258 260 260 261 263 267 270 271 270 271 271 269 268 268 268 267 266 265 265 265 267 269 269 268 270 270 271 271 270 273 275 275 277
255 255 256 258 257 257 257 258 257 256 256 258 259 259 260 262 265 266 266 268 270 270 269 268 266 267 267 266 265 264 264 264 265 265 266 267 268 269 270 269 270 271 273 275
256 256 256 258 260 261 261 262 260 259 258 257 258 258 261 263 266 268 267 268 270 272 269 268 267 268 268 267 265 266 264 262 264 264 265 265 267 267 269 269 271 272 273 275
257 257 257 258 260 261 261 264 262 261 261 259 259 260 261 261 264 267 268 270 271 272 271 271 270 269 269 267 267 266 265 264 264 264 265 266 267 267 269 270 271 271 273 275
258 259 258 259 261 262 260 262 264 264 263 262 261 262 264 263 264 266 269 271 272 273 273 271 270 269 269 267 266 267 265 265 265 265 265 267 269 271 271 269 269 272 274 276
256 257 258 259 260 259 260 261 261 263 264 264 264 263 264 265 267 269 270 271 272 274 273 270 270 268 268 266 265 266 265 264 264 265 266 268 270 272 272 271 271 273 274 276
254 256 257 258 258 258 257 260 261 261 261 262 264 264 264 265 269 270 271 272 272 274 273 270 270 269 267 266 265 265 264 263 264 267 268 270 271 272 272 273 273 274 275 276
252 253 256 259 261 260 258 259 260 261 262 264 265 266 265 267 268 270 272 274 274 275 274 272 269 268 267 265 265 265 265 264 265 266 268 269 270 271 272 273 274 275 275 276
251 254 256 257 258 259 260 261 261 261 262 263 265 266 265 267 270 271 273 274 274 274 273 272 270 268 266 264 264 264 264 264 265 267 267 268 269 270 271 273 274 275 275 276
252 254 257 259 259 262 263 263 262 263 264 265 266 266 265 266 269 272 273 273 273 273 272 272 270 267 265 263 263 263 263 266 266 266 268 269 270 271 272 271 272 273 275 276
Height
5912 5914 5916 5919 5920 5921 5922 5923 5924 5925 5923 5923 5921 5921 5921 5919 5917 5915 5914 5913 5912 5912 5912 5911 5910 5910 5909 5909 5909 5908 5907 5907 5906 5905 5904 5903 5902 5902 5902 5901 5901 5901 5901 5901
5912 5913 5916 5917 5918 5919 5921 5922 5924 5924 5922 5921 5921 5921 5920 5918 5917 5915 5914 5913 5911 5911 5911 5911 5910 5910 5909 5909 5908 5908 5907 5907 5906 5905 5905 5904 5903 5903 5903 5902 5902 5902 5901 5902
5910 5913 5914 5915 5916 5917 5919 5920 5921 5921 5920 5920 5921 5920 5919 5918 5916 5915 5914 5912 5911 5910 5910 5910 5909 5909 5909 5908 5908 5907 5907 5906 5906 5906 5905 5904 5904 5903 5903 5903 5902 5902 5902 5902
5907 5909 5911 5912 5914 5915 5916 5917 5918 5918 5918 5919 5920 5918 5918 5916 5915 5914 5912 5911 5910 5909 5909 5908 5908 5908 5908 5907 5907 5907 5906 5906 5906 5905 5905 5905 5904 5903 5903 5903 5902 5902 5902 5901
5904 5906 5907 5909 5911 5912 5913 5914 5915 5915 5915 5916 5917 5917 5916 5913 5913 5912 5911 5910 5909 5907 5906 5906 5907 5907 5906 5906 5906 5906 5905 5905 5905 5905 5905 5904 5904 5903 5903 5903 5902 5902 5901 5901
5901 5903 5904 5906 5908 5909 5910 5911 5912 5912 5913 5914 5915 5916 5914 5911 5910 5909 5909 5908 5907 5906 5905 5905 5905 5904 5904 5904 5904 5904 5904 5904 5904 5904 5904 5903 5903 5903 5903 5902 5902 5901 5901 5900
5898 5900 5901 5902 5903 5906 5907 5908 5909 5910 5911 5911 5912 5912 5911 5907 5907 5906 5905 5905 5905 5904 5903 5902 5902 5902 5902 5902 5902 5903 5903 5903 5902 5902 5902 5902 5902 5902 5902 5901 5901 5900 5900 5899
5895 5897 5898 5899 5900 5902 5903 5905 5906 5908 5909 5908 5909 5909 5908 5904 5904 5903 5902 5902 5902 5901 5900 5900 5900 5899 5900 5900 5900 5900 5901 5901 5901 5900 5900 5900 5900 5900 5900 5899 5899 5899 5899 5898
5891 5894 5894 5895 5895 5897 5898 5900 5903 5904 5903 5904 5905 5905 5903 5901 5900 5899 5900 5899 5898 5898 5897 5896 5897 5896 5897 5897 5897 5897 5898 5898 5898 5898 5898 5898 5898 5898 5898 5897 5897 5897 5897 5896
5885 5888 5891 5891 5891 5892 5893 5895 5897 5898 5898 5899 5901 5901 5900 5897 5896 5895 5895 5895 5894 5894 5894 5893 5892 5892 5893 5892 5892 5892 5894 5895 5895 5895 5895 5895 5895 5895 5895 5894 5894 5894 5894 5893
5880 5882 5885 5886 5886 5888 5889 5890 5891 5892 5893 5895 5895 5897 5896 5894 5891 5891 5890 5890 5890 5889 5889 5888 5888 5887 5888 5888 5889 5890 5890 5891 5891 5892 5891 5891 5891 5891 5891 5891 5891 5891 5891 5890
5874 5876 5878 5880 5882 5883 5883 5884 5886 5887 5887 5888 5889 5892 5890 5888 5887 5886 5885 5884 5884 5884 5884 5883 5882 5882 5883 5883 5883 5885 5885 5886 5886 5887 5887 5887 5887 5887 5887 5887 5887 5887 5886 5886
5868 5869 5871 5874 5878 5878 5877 5878 5879 5881 5882 5883 5884 5887 5884 5882 5881 5879 5878 5878 5878 5878 5879 5878 5877 5876 5877 5878 5879 5879 5880 5880 5881 5881 5881 5882 5882 5882 5882 5882 5882 5882 5882 5882
5860 5862 5865 5868 5870 5871 5871 5872 5873 5874 5876 5876 5878 5878 5877 5875 5874 5872 5871 5871 5872 5872 5872 5872 5872 5872 5872 5872 5873 5873 5874 5874 5875 5875 5875 5876 5877 5877 5877 5877 5877 5876 5877 5877
5853 5855 5857 5858 5861 5862 5864 5866 5867 5867 5868 5869 5870 5870 5869 5867 5867 5864 5864 5864 5865 5865 5865 5866 5866 5866 5865 5865 5865 5865 5865 5867 5868 5869 5869 5870 5870 5870 5870 5871 5871 5871 5871 5871
5846 5848 5849 5851 5853 5854 5855 5858 5859 5860 5861 5861 5861 5862 5861 5859 5858 5857 5857 5856 5857 5858 5858 5858 5858 5858 5858 5858 5857 5858 5858 5860 5859 5860 5862 5862 5863 5863 5863 5864 5864 5865 5865 5865
5838 5840 5841 5843 5845 5846 5847 5849 5851 5852 5853 5853 5853 5854 5852 5850 5850 5849 5849 5848 5848 5849 5850 5849 5849 5849 5849 5850 5850 5851 5852 5852 5852 5852 5853 5854 5855 5856 5856 5856 5857 5857 5857 5857
5831 5832 5833 5834 5837 5837 5841 5842 5842 5842 5843 5844 5843 5843 5842 5842 5841 5841 5840 5840 5840 5841 5840 5840 5839 5840 5841 5841 5842 5842 5843 5844 5844 5845 5846 5846 5847 5847 5848 5848 5849 5849 5849 5848
5823 5824 5825 5826 5827 5829 5832 5832 5833 5832 5833 5833 5833 5833 5834 5834 5833 5831 5831 5831 5831 5832 5831 5831 5831 5832 5832 5833 5833 5834 5833 5834 5836 5836 5837 5838 5838 5839 5839 5840 5840 5841 5841 5840
5813 5815 5817 5817 5818 5821 5824 5824 5823 5824 5823 5822 5822 5823 5824 5824 5823 5823 5822 5822 5821 5822 5823 5823 5823 5823 5824 5824 5824 5825 5825 5826 5827 5828 5828 5829 5829 5829 5830 5831 5831 5831 5831 5830
5805 5805 5807 5808 5809 5811 5813 5813 5814 5816 5814 5814 5814 5814 5814 5814 5813 5813 5813 5813 5813 5812 5813 5813 5813 5813 5814 5815 5816 5816 5817 5818 5819 5819 5819 5820 5820 5821 5821 5821 5821 5821 5822 5822
5797 5798 5799 5800 5801 5804 5804 5804 5805 5804 5804 5804 5805 5805 5804 5804 5803 5804 5803 5803 5803 5802 5802 5802 5803 5804 5805 5806 5807 5807 5808 5809 5810 5810 5811 5811 5811 5811 5812 5812 5812 5812 5812 5812
5788 5790 5789 5791 5793 5793 5793 5793 5793 5793 5794 5795 5796 5796 5795 5795 5794 5794 5794 5794 5794 5793 5792 5791 5792 5793 5795 5796 5797 5798 5799 5799 5801 5801 5802 5802 5802 5802 5802 5802 5802 5802 5802 5802
5780 5779 5780 5781 5782 5783 5783 5783 5783 5784 5785 5785 5785 5786 5786 5785 5785 5784 5784 5784 5784 5783 5782 5782 5782 5783 5785 5786 5787 5789 5789 5790 5791 5792 5792 5792 5793 5793 5793 5792 5792 5792 5792 5792
5770 5771 5771 5772 5773 5773 5774 5774 5774 5774 5775 5775 5776 5776 5776 5775 5775 5775 5775 5774 5773 5773 5772 5772 5772 5773 5775 5776 5778 5779 5780 5781 5781 5782 5783 5783 5783 5783 5783 5783 5783 5782 5782 5781
5761 5762 5763 5763 5764 5764 5764 5764 5764 5765 5765 5766 5766 5766 5766 5766 5765 5764 5764 5764 5764 5763 5763 5762 5763 5763 5765 5766 5768 5770 5771 5771 5772 5773 5773 5773 5774 5774 5773 5773 5773 5772 5772 5771